Tracking 27380 objects as of 6-Jun-2023
HD Live streaming from Space Station
objects crossing your sky now

OPS 4682 DEB

Track OPS 4682 DEB now!
10-day predictions


NORAD ID: 38426
Int'l Code: 1965-027EF
Perigee: 1,259.5 km
Apogee: 1,313.7 km
Inclination: 90.2 °
Period: 111.1 minutes
Semi major axis: 7657 km
RCS: 0.007 m2 (small)
Launch date: April 3, 1965
Source: United States (US)
Launch site: AIR FORCE WESTERN TEST RANGE (AFWTR)

Note: This is SATELLITE DEBRIS
Your satellite tracking list
Your tracking list is empty




NASA's NSSDC Master Catalog

Two Line Element Set (TLE):
1 38426U 65027EF  23156.51995720  .00000422  00000-0  14628-2 0  9999
2 38426  90.2472 345.4213 0035411 175.8328 184.3093 12.95583977491603
Source of the keplerian elements: AFSPC